Tracking 31027 objects as of 19-Jul-2025
HD Live streaming from Space Station
objects crossing your sky now

STARLINK-31594

Track STARLINK-31594 now!
10-day predictions
STARLINK-31594 is classified as:


NORAD ID: 59332
Int'l Code: 2024-057N
Perigee: 489.5 km
Apogee: 491.0 km
Inclination: 43.0 °
Period: 94.3 minutes
Semi major axis: 6861 km
RCS: Unknown
Launch date: March 25, 2024
Source: United States (US)
Launch site: AIR FORCE EASTERN TEST RANGE (AFETR)
Your satellite tracking list
NUSAT-20 (GRACE)
Track 1 satellite(s)




NASA's NSSDC Master Catalog

Two Line Element Set (TLE):
1 59332U 24057N   25199.70537466 -.00000529  00000-0 -96929-5 0  9992
2 59332  43.0041  79.7874 0001056 269.9634  90.1096 15.27558898 75105
Source of the keplerian elements: AFSPC